FW8254 Weather Reports


Display with metric or nautical units.
time (UTC)temp
F
wind
direction
speed
MPH
gust
MPH
rain 1hr
in
rain 24hr
in
rain mn
in
humidity
%
barometer
mb
20260831151730 83 38 0.0 1.0 0.00 0.00 0.00 77 1014.9
20260831151229 83 29 0.0 1.0 0.00 0.00 0.00 76 1014.8
20260831150725 82 43 0.0 1.0 0.00 0.00 0.00 78 1014.8
20260831150220 82 25 1.0 2.0 0.00 0.00 0.00 78 1014.8
20260831145719 81 12 1.0 3.0 0.00 0.00 0.00 80 1015.0
20260831145216 81 18 1.0 2.0 0.00 0.00 0.00 81 1015.0
20260831144711 80 18 0.0 1.0 0.00 0.00 0.00 81 1015.1
20260831144207 80 12 1.0 2.0 0.00 0.00 0.00 84 1015.0
20260831143706 80 16 0.0 1.0 0.00 0.00 0.00 85 1014.9
20260831143202 80 23 0.0 2.0 0.00 0.00 0.00 85 1014.9
20260831142658 79 23 1.0 3.0 0.00 0.00 0.00 85 1015.0
20260831142153 79 18 1.0 3.0 0.00 0.00 0.00 87 1014.9
20260831141652 78 21 1.0 2.0 0.00 0.00 0.00 88 1015.0
20260831141147 78 16 1.0 1.0 0.00 0.00 0.00 88 1015.0
20260831140646 78 22 0.0 1.0 0.00 0.00 0.00 90 1014.8
20260831140141 77 10 1.0 1.0 0.00 0.00 0.00 91 1015.1
20260831135639 77 11 0.0 0.0 0.00 0.00 0.00 92 1015.0
20260831135135 77 24 0.0 0.0 0.00 0.00 0.00 93 1014.8
20260831134631 76 22 0.0 0.0 0.00 0.00 0.00 94 1014.8
20260831134126 76 23 0.0 0.0 0.00 0.00 0.00 95 1014.8
20260831133625 76 20 0.0 0.0 0.00 0.00 0.00 96 1014.7
20260831133120 76 17 0.0 1.0 0.00 0.00 0.00 96 1014.9
20260831132616 75 22 0.0 0.0 0.00 0.00 0.00 96 1014.8
20260831132115 75 24 0.0 1.0 0.00 0.00 0.00 96 1014.8
20260831131610 75 24 0.0 1.0 0.00 0.00 0.00 97 1014.9
20260831131107 75 26 0.0 0.0 0.00 0.00 0.00 97 1014.8
20260831130601 75 30 0.0 0.0 0.00 0.00 0.00 97 1014.8
20260831130057 75 31 0.0 0.0 0.00 0.00 0.00 97 1014.7
20260831125555 74 25 0.0 0.0 0.00 0.00 0.00 97 1014.8
20260831125051 74 30 0.0 0.0 0.00 0.00 0.00 97 1014.8
20260831124547 74 26 0.0 0.0 0.00 0.00 0.00 97 1014.8
20260831124043 74 343 0.0 0.0 0.00 0.00 0.00 97 1014.7
20260831123542 73 350 0.0 0.0 0.00 0.00 0.00 97 1014.7
20260831123036 73 350 0.0 0.0 0.00 0.00 0.00 97 1014.8
20260831122531 73 350 0.0 0.0 0.00 0.00 0.00 97 1014.7
20260831122026 73 350 0.0 0.0 0.00 0.00 0.00 97 1014.5
20260831121527 73 350 0.0 0.0 0.00 0.00 0.00 97 1014.8
20260831121023 72 350 0.0 0.0 0.00 0.00 0.00 97 1014.6
20260831120522 72 350 0.0 0.0 0.00 0.00 0.00 97 1014.5
20260831120018 72 350 0.0 0.0 0.00 0.00 0.00 97 1014.4
20260831115514 72 350 0.0 0.0 0.00 0.00 0.00 97 1014.4
20260831115009 72 351 0.0 0.0 0.00 0.00 0.00 97 1014.3
20260831114507 72 347 0.0 0.0 0.00 0.00 0.00 97 1014.4
20260831114003 72 351 0.0 0.0 0.00 0.00 0.00 97 1014.4
20260831113501 72 350 0.0 0.0 0.00 0.00 0.00 97 1014.3
20260831112957 72 350 0.0 0.0 0.00 0.00 0.00 97 1014.4
20260831112452 72 351 0.0 0.0 0.00 0.00 0.00 97 1014.1
20260831111947 72 348 0.0 0.0 0.00 0.00 0.00 96 1014.2
20260831111443 72 348 0.0 0.0 0.00 0.00 0.00 96 1014.3
20260831110938 72 351 0.0 0.0 0.00 0.00 0.00 96 1014.1
20260831110433 72 351 0.0 0.0 0.00 0.00 0.00 96 1014.3
20260831105932 73 351 0.0 0.0 0.00 0.00 0.00 96 1014.3
20260831105428 72 351 0.0 0.0 0.00 0.00 0.00 96 1014.1
20260831104923 72 351 0.0 0.0 0.00 0.00 0.00 96 1014.2
20260831104419 72 353 0.0 0.0 0.00 0.00 0.00 96 1014.0
20260831103914 73 347 0.0 0.0 0.00 0.00 0.00 96 1014.1
20260831103414 73 350 0.0 0.0 0.00 0.00 0.00 96 1014.0
20260831102909 72 351 0.0 0.0 0.00 0.00 0.00 96 1013.9
20260831102404 72 351 0.0 0.0 0.00 0.00 0.00 96 1014.1
20260831101859 72 350 0.0 0.0 0.00 0.00 0.00 96 1014.1
20260831101354 72 350 0.0 0.0 0.00 0.00 0.00 96 1014.1
20260831100851 72 350 0.0 0.0 0.00 0.00 0.00 96 1014.2
20260831100347 72 351 0.0 0.0 0.00 0.00 0.00 96 1014.1
20260831095846 73 351 0.0 0.0 0.00 0.00 0.00 96 1014.0
20260831095345 73 351 0.0 0.0 0.00 0.00 0.00 96 1014.1
20260831094841 73 350 0.0 0.0 0.00 0.00 0.00 96 1013.8
20260831094336 73 350 0.0 0.0 0.00 0.00 0.00 96 1014.0
20260831093832 73 350 0.0 0.0 0.00 0.00 0.00 96 1014.1
20260831093327 73 351 0.0 0.0 0.00 0.00 0.00 96 1013.8
20260831092824 73 350 0.0 0.0 0.00 0.00 0.00 96 1014.0
20260831092319 73 350 0.0 0.0 0.00 0.00 0.00 95 1014.2
20260831091814 73 351 0.0 0.0 0.00 0.00 0.00 95 1014.0
20260831091310 73 351 0.0 0.0 0.00 0.00 0.00 95 1014.0
20260831090805 73 351 0.0 0.0 0.00 0.00 0.00 95 1013.6
20260831090301 73 351 0.0 0.0 0.00 0.00 0.00 95 1014.1
20260831085757 73 351 0.0 0.0 0.00 0.00 0.00 95 1013.8
20260831085251 73 352 0.0 0.0 0.00 0.00 0.00 95 1014.0
20260831084746 74 353 0.0 0.0 0.00 0.00 0.00 95 1013.8
20260831084243 74 352 0.0 0.0 0.00 0.00 0.00 95 1013.9
20260831083738 74 352 0.0 0.0 0.00 0.00 0.00 95 1013.8
20260831083234 74 353 0.0 0.0 0.00 0.00 0.00 95 1013.7
20260831082732 74 352 0.0 0.0 0.00 0.00 0.00 94 1013.8
20260831082228 74 353 0.0 0.0 0.00 0.00 0.00 94 1013.5
20260831081723 74 351 0.0 0.0 0.00 0.00 0.00 94 1013.6
20260831081219 74 351 0.0 0.0 0.00 0.00 0.00 94 1013.5
20260831080714 73 351 0.0 0.0 0.00 0.00 0.00 94 1013.5
20260831080208 73 351 0.0 0.0 0.00 0.00 0.00 94 1013.5
20260831075704 73 351 0.0 0.0 0.00 0.00 0.00 94 1013.6
20260831075200 73 352 0.0 0.0 0.00 0.00 0.00 94 1013.5
20260831074659 73 352 0.0 0.0 0.00 0.00 0.00 93 1013.4
20260831074153 74 353 0.0 0.0 0.00 0.00 0.00 93 1013.1
20260831073648 74 353 0.0 0.0 0.00 0.00 0.00 93 1013.4
20260831073148 74 353 0.0 0.0 0.00 0.00 0.00 93 1013.4
20260831072643 74 353 0.0 0.0 0.00 0.00 0.00 93 1013.2
20260831072140 74 355 0.0 0.0 0.00 0.00 0.00 93 1013.5
20260831071638 74 352 0.0 0.0 0.00 0.00 0.00 93 1013.4
20260831071133 74 352 0.0 0.0 0.00 0.00 0.00 93 1013.5
20260831070633 74 352 0.0 0.0 0.00 0.00 0.00 93 1013.4
20260831070128 74 352 0.0 0.0 0.00 0.00 0.00 92 1013.6
20260831065626 74 351 0.0 0.0 0.00 0.00 0.00 92 1013.7
20260831065125 74 351 0.0 0.0 0.00 0.00 0.00 92 1013.6
20260831064620 74 351 0.0 0.0 0.00 0.00 0.00 92 1013.8
20260831064116 74 351 0.0 0.0 0.00 0.00 0.00 92 1013.6
20260831063612 74 351 0.0 0.0 0.00 0.00 0.00 92 1013.7
20260831063107 74 352 0.0 0.0 0.00 0.00 0.00 92 1013.8
20260831062606 74 352 0.0 0.0 0.00 0.00 0.00 92 1013.8
20260831062101 74 353 0.0 0.0 0.00 0.00 0.00 92 1013.8
20260831061559 74 354 0.0 0.0 0.00 0.00 0.00 91 1014.0
20260831061055 74 351 0.0 0.0 0.00 0.00 0.00 91 1013.8
20260831060550 75 351 0.0 0.0 0.00 0.00 0.00 91 1013.9
20260831060045 75 352 0.0 0.0 0.00 0.00 0.00 91 1013.7
20260831055539 75 353 0.0 0.0 0.00 0.00 0.00 91 1013.8
20260831055035 75 353 0.0 0.0 0.00 0.00 0.00 91 1013.8
20260831054535 75 351 0.0 0.0 0.00 0.00 0.00 91 1013.9
20260831054034 75 351 0.0 0.0 0.00 0.00 0.00 91 1013.9
20260831053532 75 351 0.0 0.0 0.00 0.00 0.00 91 1013.7
20260831053028 75 351 0.0 0.0 0.00 0.00 0.00 91 1013.9
20260831052526 75 352 0.0 0.0 0.00 0.00 0.00 91 1014.0
20260831052026 75 352 0.0 0.0 0.00 0.00 0.00 90 1013.9
20260831051524 75 352 0.0 0.0 0.00 0.00 0.00 90 1014.2
20260831051024 75 352 0.0 0.0 0.00 0.00 0.00 90 1014.1
20260831050524 75 352 0.0 0.0 0.00 0.00 0.00 90 1014.2
20260831050022 75 352 0.0 0.0 0.00 0.00 0.00 90 1014.1
20260831045522 75 352 0.0 0.0 0.00 0.00 0.00 90 1013.8
20260831045017 75 352 0.0 0.0 0.00 0.00 0.00 90 1014.1
20260831044512 75 353 0.0 0.0 0.00 0.00 0.00 90 1014.1
20260831044008 75 352 0.0 0.0 0.00 0.00 0.00 90 1014.1
20260831043507 76 352 0.0 0.0 0.00 0.00 0.00 90 1014.2
20260831043002 76 352 0.0 0.0 0.00 0.00 0.00 90 1014.3
20260831042457 76 352 0.0 0.0 0.00 0.00 0.00 90 1014.2
20260831041956 76 352 0.0 0.0 0.00 0.00 0.00 90 1014.2
20260831041451 76 351 0.0 0.0 0.00 0.00 0.00 89 1014.4
20260831040946 76 353 0.0 1.0 0.00 0.00 0.00 89 1014.2
20260831040441 76 351 0.0 0.0 0.00 0.00 0.00 89 1014.1
20260831035938 77 353 0.0 0.0 0.00 0.00 0.00 89 1014.3
20260831035438 77 353 0.0 0.0 0.00 0.00 0.00 89 1014.4
20260831034932 77 347 0.0 0.0 0.00 0.00 0.00 89 1014.3
20260831034428 77 347 0.0 0.0 0.00 0.00 0.00 89 1014.2
20260831033923 77 347 0.0 0.0 0.00 0.00 0.00 89 1014.1
20260831033419 77 347 0.0 0.0 0.00 0.00 0.00 88 1014.3
20260831032914 77 347 0.0 0.0 0.00 0.00 0.00 88 1014.2
20260831032408 77 347 0.0 0.0 0.00 0.00 0.00 88 1014.1
20260831031903 77 347 0.0 0.0 0.00 0.00 0.00 88 1014.2
20260831031402 77 347 0.0 1.0 0.00 0.00 0.00 88 1014.1
20260831030857 77 347 0.0 0.0 0.00 0.00 0.00 88 1014.1
20260831030356 77 352 0.0 1.0 0.00 0.00 0.00 87 1014.4
20260831025855 77 347 0.0 0.0 0.00 0.00 0.00 87 1014.3
20260831025355 78 340 0.0 0.0 0.00 0.00 0.00 87 1014.2
20260831024850 78 341 0.0 0.0 0.00 0.00 0.00 87 1014.3
20260831024350 78 340 0.0 0.0 0.00 0.00 0.00 86 1014.5
20260831023849 78 340 0.0 0.0 0.00 0.00 0.00 86 1014.0
20260831023347 78 340 0.0 0.0 0.00 0.00 0.00 86 1013.9
20260831022842 78 340 0.0 0.0 0.00 0.00 0.00 85 1014.0
20260831022342 78 340 0.0 0.0 0.00 0.00 0.00 85 1013.9
20260831021836 79 340 0.0 0.0 0.00 0.00 0.00 84 1014.1
20260831021331 79 340 0.0 0.0 0.00 0.00 0.00 84 1014.1
20260831020827 79 340 0.0 0.0 0.00 0.00 0.00 83 1014.1
20260831020326 79 339 0.0 0.0 0.00 0.00 0.00 83 1014.1
20260831015822 79 339 0.0 0.0 0.00 0.00 0.00 81 1014.3
20260831015317 79 339 0.0 0.0 0.00 0.00 0.00 81 1014.1
20260831014812 79 339 0.0 0.0 0.00 0.00 0.00 81 1014.0
20260831014307 79 339 0.0 0.0 0.00 0.00 0.00 81 1014.0
20260831013803 79 339 0.0 0.0 0.00 0.00 0.00 81 1014.0
20260831013302 79 339 0.0 0.0 0.00 0.00 0.00 82 1014.1
20260831012757 80 339 0.0 0.0 0.00 0.00 0.00 82 1013.8
20260831012253 80 338 0.0 0.0 0.00 0.00 0.00 82 1014.0
20260831011751 80 345 0.0 0.0 0.00 0.00 0.00 81 1013.9
20260831011247 80 343 0.0 0.0 0.00 0.00 0.00 81 1013.8
20260831010742 80 345 0.0 0.0 0.00 0.00 0.00 81 1013.8
20260831010237 80 344 0.0 0.0 0.00 0.00 0.00 81 1013.5
20260831005733 80 344 0.0 0.0 0.00 0.00 0.00 81 1013.6
20260831005228 80 346 0.0 1.0 0.00 0.00 0.00 82 1013.7
20260831004723 80 344 1.0 1.0 0.00 0.00 0.00 83 1013.5
20260831004220 80 342 0.0 0.0 0.00 0.00 0.00 82 1013.5
20260831003715 81 342 0.0 0.0 0.00 0.00 0.00 82 1013.6
20260831003211 81 342 0.0 0.0 0.00 0.00 0.00 82 1013.5
20260831002709 81 342 0.0 0.0 0.00 0.00 0.00 81 1013.5
20260831002204 81 342 0.0 0.0 0.00 0.00 0.00 81 1013.4
20260831001701 82 342 0.0 0.0 0.00 0.00 0.00 80 1013.5
20260831001200 82 341 0.0 0.0 0.00 0.00 0.00 80 1013.0
20260831000657 82 341 0.0 0.0 0.00 0.00 0.00 79 1013.1
20260831000152 82 344 0.0 0.0 0.00 0.00 0.00 78 1013.1
20260830235650 83 51 0.0 0.0 0.00 0.00 0.00 77 1013.2
20260830235146 83 51 0.0 0.0 0.00 0.00 0.00 77 1013.1
20260830234641 84 51 0.0 0.0 0.00 0.00 0.00 76 1013.2
20260830234137 84 51 0.0 0.0 0.00 0.00 0.00 75 1013.2
20260830233632 84 52 0.0 0.0 0.00 0.00 0.00 73 1013.1
20260830233128 85 52 0.0 0.0 0.00 0.00 0.00 72 1013.1
20260830232623 85 52 0.0 0.0 0.00 0.00 0.00 71 1013.3
20260830232119 85 52 0.0 1.0 0.00 0.00 0.00 70 1013.1
20260830231615 85 52 0.0 0.0 0.00 0.00 0.00 70 1013.1
20260830231114 85 52 0.0 1.0 0.00 0.00 0.00 70 1013.2
20260830230610 85 52 0.0 1.0 0.00 0.00 0.00 70 1013.1
20260830230104 86 52 0.0 1.0 0.00 0.00 0.00 69 1013.3
20260830225559 86 52 0.0 0.0 0.00 0.00 0.00 68 1013.0
20260830225054 86 52 0.0 1.0 0.00 0.00 0.00 68 1012.9
20260830224552 86 52 0.0 1.0 0.00 0.00 0.00 68 1013.0
20260830224049 86 52 0.0 1.0 0.00 0.00 0.00 69 1013.1
20260830223545 86 52 1.0 1.0 0.00 0.00 0.00 69 1012.9
20260830223039 86 47 0.0 1.0 0.00 0.00 0.00 68 1013.0
20260830222534 86 47 0.0 1.0 0.00 0.00 0.00 67 1012.9
20260830222030 86 47 0.0 1.0 0.00 0.00 0.00 66 1013.1
20260830221526 86 47 0.0 1.0 0.00 0.00 0.00 65 1012.9
20260830221022 86 57 2.0 2.0 0.00 0.00 0.00 65 1013.0
20260830220521 86 43 0.0 1.0 0.00 0.00 0.00 67 1012.9
20260830220020 86 43 0.0 2.0 0.00 0.00 0.00 66 1013.1
20260830215514 86 47 1.0 1.0 0.00 0.00 0.00 66 1013.1
20260830215009 87 50 1.0 3.0 0.00 0.00 0.00 65 1012.9
20260830214504 87 46 0.0 2.0 0.00 0.00 0.00 65 1012.9
20260830213958 86 46 1.0 1.0 0.00 0.00 0.00 64 1012.8
20260830213453 86 44 0.0 2.0 0.00 0.00 0.00 66 1012.8
20260830212948 86 49 0.0 1.0 0.00 0.00 0.00 66 1012.9
20260830212444 87 43 1.0 2.0 0.00 0.00 0.00 65 1013.1
20260830211943 87 44 0.0 1.0 0.00 0.00 0.00 65 1013.1
20260830211438 87 48 0.0 1.0 0.00 0.00 0.00 64 1012.9
20260830210934 87 50 1.0 1.0 0.00 0.00 0.00 63 1012.9
20260830210434 87 59 1.0 2.0 0.00 0.00 0.00 63 1013.2
20260830205931 87 46 1.0 1.0 0.00 0.00 0.00 62 1013.2
20260830205430 87 49 0.0 2.0 0.00 0.00 0.00 61 1013.4
20260830204926 87 44 0.0 2.0 0.00 0.00 0.00 65 1013.4
20260830204425 87 43 1.0 3.0 0.00 0.00 0.00 63 1013.4
20260830203920 87 37 0.0 1.0 0.00 0.00 0.00 65 1013.4
20260830203416 87 45 2.0 5.0 0.00 0.00 0.00 66 1013.4
20260830202915 87 44 0.0 2.0 0.00 0.00 0.00 64 1013.3
20260830202411 88 63 2.0 2.0 0.00 0.00 0.00 65 1013.6
20260830201907 89 72 2.0 3.0 0.00 0.00 0.00 65 1013.7
20260830201400 89 45 0.0 1.0 0.00 0.00 0.00 64 1013.7
20260830200856 90 44 0.0 1.0 0.00 0.00 0.00 63 1013.7
20260830200355 89 44 0.0 1.0 0.00 0.00 0.00 64 1013.7
20260830195845 90 40 0.0 1.0 0.00 0.00 0.00 63 1013.7
20260830195344 89 35 0.0 0.0 0.00 0.00 0.00 63 1014.0
20260830194843 89 56 2.0 2.0 0.00 0.00 0.00 62 1013.7
20260830194336 89 40 1.0 2.0 0.00 0.00 0.00 62 1013.8
20260830193831 88 32 0.0 1.0 0.00 0.00 0.00 65 1014.0
20260830193325 87 38 0.0 2.0 0.00 0.00 0.00 70 1014.2
20260830192822 85 43 1.0 1.0 0.00 0.00 0.00 70 1014.3
20260830192321 86 52 1.0 2.0 0.00 0.00 0.00 70 1014.5
20260830191817 86 45 0.0 1.0 0.00 0.00 0.00 69 1014.2
20260830191316 87 33 0.0 1.0 0.00 0.00 0.00 67 1014.3
20260830190813 88 39 0.0 1.0 0.00 0.00 0.00 65 1014.5
20260830190312 88 35 0.0 1.0 0.00 0.00 0.00 63 1014.2
20260830185811 88 45 2.0 2.0 0.00 0.00 0.00 64 1014.4
20260830185306 87 36 2.0 2.0 0.00 0.00 0.00 64 1014.4
20260830184801 88 54 0.0 3.0 0.00 0.00 0.00 67 1014.6
20260830184300 87 47 0.0 1.0 0.00 0.00 0.00 68 1014.6
20260830183756 86 36 0.0 1.0 0.00 0.00 0.00 70 1014.7
20260830183255 86 41 1.0 2.0 0.00 0.00 0.00 69 1014.8
20260830182751 85 56 2.0 2.0 0.00 0.00 0.00 69 1015.0
20260830182247 86 44 1.0 1.0 0.00 0.00 0.00 70 1014.8
20260830181743 85 32 0.0 2.0 0.00 0.00 0.00 70 1014.9
20260830181238 84 47 0.0 1.0 0.00 0.00 0.00 73 1015.1
20260830180736 84 42 0.0 1.0 0.00 0.00 0.00 74 1014.9
20260830180231 85 43 1.0 1.0 0.00 0.00 0.00 74 1015.0
20260830175726 85 37 0.0 1.0 0.00 0.00 0.00 72 1015.2
20260830175221 85 42 0.0 1.0 0.00 0.00 0.00 73 1015.0
20260830174715 85 66 3.0 3.0 0.00 0.00 0.00 72 1015.3
20260830174211 84 25 1.0 1.0 0.00 0.00 0.00 74 1015.2
20260830173711 84 45 1.0 2.0 0.00 0.00 0.00 76 1015.5
20260830173206 84 68 2.0 2.0 0.00 0.00 0.00 76 1015.5
20260830172703 84 47 1.0 2.0 0.00 0.00 0.00 76 1015.5
20260830172200 83 45 0.0 1.0 0.00 0.00 0.00 76 1015.8
20260830171700 84 44 0.0 1.0 0.00 0.00 0.00 78 1015.9
20260830171154 83 45 0.0 1.0 0.00 0.00 0.00 77 1015.8
20260830170649 83 44 0.0 1.0 0.00 0.00 0.00 76 1016.0
20260830170149 83 46 1.0 1.0 0.00 0.00 0.00 76 1016.0
20260830165643 83 38 0.0 2.0 0.00 0.00 0.00 76 1016.2
20260830165139 83 41 0.0 1.0 0.00 0.00 0.00 78 1016.2
20260830164635 82 36 0.0 1.0 0.00 0.00 0.00 79 1016.3
20260830164131 82 42 0.0 1.0 0.00 0.00 0.00 79 1016.3
20260830163628 82 35 0.0 1.0 0.00 0.00 0.00 79 1016.4
20260830163127 82 38 0.0 2.0 0.00 0.00 0.00 80 1016.4
20260830162623 82 41 0.0 1.0 0.00 0.00 0.00 80 1016.6
20260830162119 82 43 1.0 2.0 0.00 0.00 0.00 80 1016.6
20260830161619 81 52 0.0 2.0 0.00 0.00 0.00 80 1016.7
20260830161113 82 47 1.0 1.0 0.00 0.00 0.00 80 1016.8
20260830160610 82 42 1.0 2.0 0.00 0.00 0.00 79 1016.8
20260830160104 82 43 1.0 2.0 0.00 0.00 0.00 80 1016.7
20260830155601 81 70 3.0 5.0 0.00 0.00 0.00 80 1016.6
20260830155056 81 46 1.0 2.0 0.00 0.00 0.00 81 1016.9
20260830154551 81 42 1.0 1.0 0.00 0.00 0.00 82 1016.8
20260830154047 81 43 0.0 2.0 0.00 0.00 0.00 81 1016.9
20260830153543 81 38 0.0 1.0 0.00 0.00 0.00 82 1016.7
20260830153043 81 39 0.0 1.0 0.00 0.00 0.00 82 1016.8
20260830152537 81 42 1.0 1.0 0.00 0.00 0.00 83 1016.8
20260830152037 80 41 0.0 1.0 0.00 0.00 0.00 84 1016.8